7 * 24
多渠道服务支持
NINGXIA-1 4是中国宁夏金汇信息技术有限公司拥有、中国航天科技集团东方红卫星有限公司研制的一颗商业信号情报卫星,属于宁夏一号(也叫钟子号)卫星星座,该卫星于北京时间2019年11月13日8时,由长征六号运载火箭在太原卫星发射中心发射入轨,主要用于全球电磁频谱信号监测,支撑商业遥感与频谱管控应用,是中国商业航天信号监测领域布局的重要组成部分。
中国
(CN)
| 数据来源 | 国际轨道数据 |
| 星历时间: | 2026-07-14T04:34:54+0800 9小时前 查看轨道信息 |
| 半长轴: | 7264.764km |
| 偏心率: | 0.001324 |
| 轨道倾角: | 45.009° |
| 近地点辐角 | 252.296° |
| 升交点赤经 | 60.641° |
| 平近点角 | 107.643° |
| 近地点: | 877.008km |
| 远地点: | 896.246km |
| 周期: | 102.705分钟 |
| 每日圈数: | 14.020727 |